Powrót do katalogu

STARLINK-37934

AktywnyŁącznośćSSO
NORAD 69567·PAYLOAD·🇺🇸 United States

Wystrzelony Jun 15, 2026 z Vandenberg Space Force Base

Loading…

Następne Przeloty (najbliższe 24 godziny)

TLE

ŚwieżeSource: CelesTrak SupGP

Epoka: Sep 14, 2026, 23:17 UTC

1 69567C 26135X   26257.97062500  .00052800  00000+0  16388-2 0  2570
2 69567  97.2840 285.7961 0001292 105.4908   4.0144 15.33417763    18

Śledź STARLINK-37934 w czasie rzeczywistym z AllMySat

Download on the App Store